EDT,Max TemperatureF,Mean TemperatureF,Min TemperatureF,Max Dew PointF,MeanDew PointF,Min DewpointF,Max Humidity, Mean Humidity, Min Humidity, Max Sea Level PressureIn, Mean Sea Level PressureIn, Min Sea Level PressureIn, Max VisibilityMiles, Mean VisibilityMiles, Min VisibilityMiles, Max Wind SpeedMPH, Mean Wind SpeedMPH, Max Gust SpeedMPH,PrecipitationIn, CloudCover, Events, WindDirDegrees
2010-10-1,71,64,55,55,49,41,94,66,39,29.98,29.81,29.65,10,10,8,21,14,30,0.19,4,Rain,332
2010-10-2,68,56,44,46,43,40,93,62,36,30.06,30.02,29.99,10,10,10,6,3,,0.00,0,,88
2010-10-3,66,54,45,47,43,39,93,64,39,30.16,30.08,30.03,10,10,10,12,4,20,0.01,3,Rain,38
2010-10-4,54,50,45,48,44,41,93,80,66,30.22,30.17,30.13,10,9,2,13,8,18,0.31,7,Rain,356
2010-10-5,55,50,46,45,43,42,83,75,64,30.16,30.11,30.03,10,10,10,15,7,,0.00,8,,291
2010-10-6,57,52,48,48,44,42,89,75,59,30.05,29.94,29.84,10,10,5,13,6,17,0.11,8,Rain,257
2010-10-7,71,62,53,49,45,40,83,58,39,30.02,29.88,29.81,10,10,10,22,9,28,0.00,2,,276
2010-10-8,77,64,51,43,41,37,68,45,24,30.11,30.04,29.96,10,10,10,9,6,,0.00,0,,243
2010-10-9,81,69,57,47,42,38,58,40,21,30.03,30.00,29.95,10,10,10,12,6,17,0.00,0,,259
2010-10-10,80,64,48,53,48,41,86,58,39,30.05,29.94,29.81,10,10,10,8,4,,0.00,0,,229
2010-10-11,82,71,60,53,50,47,67,48,29,29.89,29.84,29.80,10,10,10,8,3,,0.00,0,,213
2010-10-12,78,67,55,56,50,36,93,61,29,29.96,29.85,29.81,10,9,4,18,8,24,0.01,2,Rain-Thunderstorm,335
2010-10-13,64,54,45,43,39,33,82,58,31,30.11,30.04,29.99,10,10,10,8,5,,0.00,0,,14
2010-10-14,59,52,46,52,45,37,100,87,61,30.01,29.88,29.80,10,6,2,16,4,,0.00,6,Rain,336
2010-10-15,61,54,48,41,37,31,74,56,40,29.86,29.77,29.70,10,10,10,22,10,30,0.00,3,,289
2010-10-16,64,56,48,37,35,33,64,48,31,30.05,29.98,29.87,10,10,10,23,14,32,0.00,0,,299
2010-10-17,75,60,45,41,38,35,74,47,28,30.06,29.99,29.89,10,10,10,20,7,28,0.00,0,,246
2010-10-18,60,52,45,44,37,31,80,55,35,30.07,30.00,29.96,10,10,9,10,4,,0.01,4,Rain,23
2010-10-19,61,53,46,49,45,38,96,80,46,29.99,29.95,29.91,10,7,2,8,3,,0.17,6,Rain,283
2010-10-20,60,50,41,47,43,38,93,77,55,29.99,29.92,29.82,10,10,6,9,3,,0.00,1,,178
2010-10-21,62,54,46,47,36,24,93,56,24,29.90,29.76,29.67,10,9,4,26,10,37,0.00,0,,248
2010-10-22,55,50,44,35,30,25,63,48,34,30.23,30.11,29.91,10,10,10,21,8,25,0.00,2,,286
2010-10-23,72,55,39,42,35,31,70,49,26,30.28,30.21,30.15,10,10,10,10,6,17,0.00,0,,181
2010-10-24,77,66,54,48,44,40,66,50,26,30.18,30.10,30.00,10,10,10,10,5,,0.00,0,,169
2010-10-25,71,64,57,62,55,47,90,73,62,29.99,29.88,29.75,10,10,6,18,7,25,0.02,4,Rain,177
2010-10-26,73,64,57,66,61,56,97,81,71,29.89,29.81,29.73,10,10,7,18,9,28,0.00,3,Rain,162
2010-10-27,69,65,61,66,60,54,97,81,60,29.93,29.87,29.76,10,9,2,8,5,18,0.15,6,Rain,196
2010-10-28,71,58,45,58,43,26,93,61,19,30.09,29.95,29.88,10,10,10,23,8,33,0.00,0,,257
2010-10-29,52,46,39,36,32,30,68,57,46,30.23,30.15,30.06,10,10,10,17,12,26,0.00,5,,300
2010-10-30,59,46,36,34,30,28,76,53,32,30.23,30.05,29.82,10,10,10,16,7,24,0.00,0,,187
2010-10-31,59,50,41,38,31,23,60,46,29,30.23,29.97,29.79,10,10,10,18,9,24,0.00,2,,289